Regional Weather Roundup
Issued by NWS

Home | Current Version | Previous Version | Graphics & Text | Print | Product List | Glossary On
Versions: 1 2 3 4 5 6 7 8 9 10 11 12 13 14 15 16 17 18 19 20 21 22 23 24 25 26 27 28 29 30 31 32 33 34 35 36 37 38 39 40 41 42 43 44 45 46 47 48 49 50
000
ASUS45 KBOI 232310
RWRID
WEATHER ROUNDUP FOR IDAHO
NATIONAL WEATHER SERVICE BOISE ID
500 PM MDT WED JUL 23 2014

NOTE: "FAIR" INDICATES FEW OR NO CLOUDS BELOW 12000 FEET
WITH NO SIGNIFICANT WEATHER AND/OR OBSTRUCTIONS TO VISIBILITY

IDZ012-014-240000-
SOUTHWEST IDAHO


CITY           SKY/WX    TMP DP  RH WIND       PRES   REMARKS
BOISE          MOSUNNY   94  42  16 E8        29.90F HX  90
CALDWELL       PTSUNNY   84  55  37 E7        29.91F
MOUNTAIN HOME  MOSUNNY   94  43  17 E7        29.91F
$$

IDZ016-017-240000-
SOUTHCENTRAL IDAHO


CITY           SKY/WX    TMP DP  RH WIND       PRES   REMARKS
BURLEY         MOSUNNY   91  43  18 N7        29.97F
JEROME         MOSUNNY   95  39  14 S6        29.97F HX  91
TWIN FALLS     PTSUNNY   96  44  16 NE12      29.96F HX  92
$$

IDZ019>023-240000-
SOUTHEAST IDAHO


CITY           SKY/WX    TMP DP  RH WIND       PRES   REMARKS
IDAHO FALLS    MOSUNNY   94  33  11 W8        30.06F
POCATELLO      MOSUNNY   96  38  13 NW8       30.03F HX  91
REXBURG        MOSUNNY   89  35  14 W9        30.08F
$$

IDZ006-010-011-018-031-032-240000-
CENTRAL IDAHO MOUNTAINS


CITY           SKY/WX    TMP DP  RH WIND       PRES   REMARKS
MCCALL         MOSUNNY   82  39  21 S13G23    30.05F
HAILEY         MOSUNNY   84  46  26 MISG      30.12F
STANLEY          N/A     80  35  19 S10G20    30.17F
SALMON         MOSUNNY   88  48  25 NW8       29.90F
CHALLIS        MOSUNNY   93  22   7 S16G23    30.01F
$$

IDZ002-004-006-007-026-240000-
NORTHERN IDAHO


CITY           SKY/WX    TMP DP  RH WIND       PRES   REMARKS
LEWISTON       PTSUNNY   78  59  51 W29G47    29.85R
LOWELL           N/A     91  49  23 CALM      29.75F
COEUR D`ALENE  MOSUNNY   82  55  39 CALM      29.81F
MULLAN PASS    PTSUNNY   71  43  36 VRB3      30.08F
$$



USA.gov is the U.S. government's official web portal to all federal, state and local government web resources and services.